| time (UTC) | temp C | wind direction | speed KPH | gust KPH | rain 1hr cm | rain 24hr cm | rain mn cm | humidity % | barometer mb |
| 20260505080018 | 20 | 203 | 1.6 | 0.0 | 0.00 | 0.00 | 0.36 | 92 | 1017.8 |
| 20260505074514 | 20 | 360 | 1.6 | 0.0 | 0.00 | 0.00 | 0.20 | 91 | 1017.5 |
| 20260505073009 | 20 | 360 | 3.2 | 0.0 | 0.00 | 0.00 | 0.10 | 90 | 1017.1 |
| 20260505071505 | 21 | 256 | 3.2 | 0.0 | 0.00 | 0.00 | 0.05 | 89 | 1016.8 |
| 20260505070108 | 21 | 90 | 1.6 | 0.0 | 0.00 | 0.00 | 0.05 | 88 | 1016.4 |
| 20260505064607 | 22 | 105 | 3.2 | 0.0 | 0.00 | 0.00 | 0.05 | 86 | 1016.2 |
| 20260505063053 | 22 | 113 | 4.8 | 0.0 | 0.00 | 0.00 | 0.00 | 82 | 1015.9 |
| 20260505061548 | 23 | 90 | 6.4 | 0.0 | 0.00 | 0.00 | 0.00 | 80 | 1015.8 |
| 20260505060044 | 23 | 80 | 6.4 | 0.0 | 0.00 | 0.00 | 0.00 | 76 | 1015.4 |
| 20260505054558 | 24 | 129 | 8.0 | 0.0 | 0.00 | 0.00 | 0.00 | 74 | 1015.1 |
| 20260505053039 | 25 | 119 | 8.0 | 0.0 | 0.00 | 0.00 | 0.00 | 70 | 1014.7 |
| 20260505051539 | 25 | 155 | 9.7 | 0.0 | 0.00 | 0.00 | 0.00 | 67 | 1014.5 |
| 20260505041513 | 27 | 101 | 4.8 | 0.0 | 0.00 | 0.00 | 0.00 | 61 | 1014.2 |
| 20260505040008 | 27 | 131 | 4.8 | 0.0 | 0.00 | 0.00 | 0.00 | 61 | 1014.2 |
| 20260505034504 | 27 | 321 | 4.8 | 0.0 | 0.00 | 0.00 | 0.00 | 64 | 1014.2 |
| 20260505033100 | 27 | 83 | 3.2 | 0.0 | 0.00 | 0.00 | 0.00 | 65 | 1014.3 |
| 20260505031555 | 27 | 355 | 3.2 | 0.0 | 0.00 | 0.00 | 0.00 | 67 | 1014.4 |
| 20260505024547 | 26 | 82 | 4.8 | 0.0 | 0.00 | 0.00 | 0.00 | 69 | 1014.8 |
| 20260505023042 | 26 | 201 | 3.2 | 0.0 | 0.00 | 0.00 | 0.00 | 70 | 1015.2 |
| 20260505021549 | 26 | 171 | 3.2 | 0.0 | 0.00 | 0.00 | 0.00 | 70 | 1015.4 |
| 20260505020048 | 26 | 231 | 3.2 | 0.0 | 0.00 | 0.00 | 0.00 | 71 | 1015.4 |
| 20260505014529 | 26 | 69 | 1.6 | 0.0 | 0.00 | 0.00 | 0.00 | 72 | 1015.5 |
| 20260505013024 | 26 | 22 | 4.8 | 0.0 | 0.00 | 0.00 | 0.00 | 73 | 1015.9 |
| 20260505011520 | 26 | 208 | 3.2 | 0.0 | 0.00 | 0.00 | 0.00 | 73 | 1016.2 |
| 20260505010107 | 25 | 270 | 3.2 | 0.0 | 0.00 | 0.00 | 0.00 | 75 | 1016.4 |
| 20260505004548 | 25 | 262 | 1.6 | 0.0 | 0.00 | 0.00 | 0.00 | 75 | 1016.6 |